Regional Weather Roundup
Issued by NWS

Home | Current Version | Previous Version | Text Only | Print | Product List | Glossary On
Versions: 1 2 3 4 5 6 7 8 9 10 11 12 13 14 15 16 17 18 19 20 21 22 23 24 25 26 27 28 29 30 31 32 33 34 35 36 37 38 39 40 41 42 43 44 45 46 47 48 49 50
000
ASUS44 KMEG 021510
RWRTN
TENNESSEE HOURLY STATE WEATHER ROUNDUP
NATIONAL WEATHER SERVICE MEMPHIS TN
1000 AM CDT TUE JUN 02 2015

TNZ002-004-019-021-049-052-054-088>092-021600-
WEST TENNESSEE

CITY           SKY/WX    TMP DP  RH WIND       PRES   REMARKS
MEMPHIS INTL   PTSUNNY   71  60  68 NE7       30.10F
NWS MEMPHIS      N/A     69 N/A N/A MISG        N/A
JACKSON        CLOUDY    68  60  75 N7        30.11S
DYERSBURG      CLOUDY    64  48  55 N5        30.12S
PARIS          CLOUDY    63  57  82 NE6       30.11S
LEXINGTON      CLOUDY    66  57  72 VRB5      30.09S
$$

TNZ008-025-027-028-033-062-065-066-021600-
NORTH MIDDLE TENNESSEE

CITY           SKY/WX    TMP DP  RH WIND       PRES   REMARKS
NASHVILLE      CLOUDY    63  59  87 N7        30.11F FOG
CLARKSVILLE    CLOUDY    62  57  83 N6        30.12S
SMYRNA         CLOUDY    63  60  90 N6        30.12S
COOKEVILLE     CLOUDY    64  63  94 NW5       30.09R
CROSSVILLE     PTSUNNY   68  60  75 VRB3      30.09F
$$

TNZ061-075-076-078-094-096-097-021600-
SOUTH MIDDLE TENNESSEE

CITY           SKY/WX    TMP DP  RH WIND       PRES   REMARKS
FAYETTEVILLE   CLOUDY   N/A N/A N/A MISG      30.09S
TULLAHOMA      CLOUDY    63  61  94 N3        30.11S
WINCHESTER     CLOUDY    66  63  88 NW5       30.09S
MCMINNVILLE    CLOUDY    66  66 100 VRB3      30.09S
COLUMBIA       CLOUDY    64  61  88 NW6       30.09S
SHELBYVILLE    CLOUDY    64  63  94 N7        30.11S
$$

TNZ017-018-042-046-047-021600-
NORTHEAST TENNESSEE

CITY           SKY/WX    TMP DP  RH WIND       PRES   REMARKS
TRI CITIES     PTSUNNY   69  63  81 E3        30.08S
ELIZABETHTON   CLOUDY    68  63  83 CALM      30.08S
$$

TNZ012-013-036-069-073-074-021600-
CENTRAL EAST TENNESSEE

CITY           SKY/WX    TMP DP  RH WIND       PRES   REMARKS
KNOXVILLE      PTSUNNY   72  62  71 VRB3      30.05F
OAK RIDGE      CLOUDY    73  63  70 CALM      30.07F
GATLINBURG     PTSUNNY   73  63  68 CALM      30.05F
MORRISTOWN     MOSUNNY   70  64  83 N6        30.07S
$$

TNZ083-085-099-021600-
SOUTHEAST TENNESSEE

CITY           SKY/WX    TMP DP  RH WIND       PRES   REMARKS
CHATTANOOGA    PTSUNNY   75  64  68 NE3       30.06F
$$

SKY/WX REPORTED AS FAIR MEANS FEW OR NO CLOUDS BELOW
12 THOUSAND FEET.



USA.gov is the U.S. government's official web portal to all federal, state and local government web resources and services.